Погода в Осьмиговичах

Украина / Волынская область     50°55′34″N   24°47′34″E
темп.,
°C
ветер,
м/с
пор.,
м/с
влажн.,
%
обл.,
%
осадки,
мм/ч
давл.,
гПа
погр.,
м
22 октября, пт
пт2200:00+12з8156095 0.3 10061102
03:00+11зюз715660 0.3 1006726
06:00+11зюз916535 0.0 10071181
09:00+11з914585 0.0 10091335
12:00+11з914465 0.0 10111619
15:00+12з914385 0.0 10111972
18:00+10з712425 0.0 1011827
21:00+9зюз71545100 0.0 1011795
23 октября, сб
сб2300:00+9зюз916445 0.0 10111154
03:00+8з1017545 0.0 10121148
06:00+5з91487100 0.3 1014993
09:00+5з8137241 0.4 10161028
12:00+7з91362100 0.0 10181355
15:00+8з71261100 0.1 10191758
18:00+7з6126141 0.0 1019640
21:00+5з5118497 0.1 1021434
24 октября, вс
вс2400:00+4з6128626 0.1 1023459
03:00+3зсз5118875 0.1 1025360
06:00+2зсз51084100 0.0 1027571
09:00+3зсз5108199 0.0 1029587
12:00+6сз576235 0.0 10301011
15:00+8сз6751100 0.0 10311553
18:00+7ссз4652100 0.0 1032414
21:00+4зсз2261100 0.0 103241
25 октября, пн
пн2500:00+3зсз227244 0.0 103313
03:00+2зюз1177100 0.0 103310
06:00+1ююз227843 0.0 103310
09:00+2ююв23775 0.0 103360
12:00+8ююв45515 0.0 1033610
15:00+10ююв56415 0.0 1031873
18:00+7юв47525 0.0 1030103
21:00+4ююв410605 0.0 1029166
26 октября, вт
вт2600:00+4ююв411595 0.0 1029222
03:00+2ю411648 0.0 1028186
06:00+2ю486793 0.0 1027139
09:00+2ююз3665100 0.0 1027123
12:00+9юз354291 0.0 1026402
15:00+11юз3436100 0.0 1024549
18:00+8юз3349100 0.0 102420
21:00+6зюз3356100 0.0 102438